When you browse on this site, cookies collect data to enhance your experience and personalize the content and advertising you see.
Visit our Privacy Policy to learn more. By continuing to use the site, you agree to this use of cookies and data.
  • In Schweiz
  • Länderverzeichnis
  • Für 7 Tage
  • Wassertemperatur
  • Satellitenkarten
  • Wetterkarte
  • Widgets
  • user-avatar
    Anmelden

    Stündliche Wetter Prutz

    Heute, 27 Mai, Montag

    Zeit Temperatur Niederschläge Wind Luftdruck Luftfeuchtigkeit
    00:00 +6°C° 0 mm 0 m/S 631 mmHg 97%
    01:00 +6°C° 0 mm 0 m/S 630 mmHg 97%
    02:00 +6°C° 0 mm 0 m/S 630 mmHg 97%
    03:00 +7°C° 0 mm 0 m/S 630 mmHg 97%
    04:00 +8°C° 0 mm 1 m/S 630 mmHg 97%
    05:00 +9°C° 0 mm 1 m/S 630 mmHg 95%
    06:00 +10°C° 0 mm 1 m/S 630 mmHg 93%
    07:00 +10°C° 0 mm 1 m/S 630 mmHg 91%
    08:00 +11°C° 0.2 mm 1 m/S 631 mmHg 89%
    09:00 +11°C° 0.2 mm 1 m/S 631 mmHg 87%
    10:00 +12°C° 0.2 mm 1 m/S 631 mmHg 85%
    11:00 +12°C° 0.4 mm 1 m/S 630 mmHg 84%
    12:00 +12°C° 0.4 mm 2 m/S 630 mmHg 84%
    13:00 +13°C° 0.4 mm 2 m/S 630 mmHg 84%
    14:00 +12°C° 0.6 mm 2 m/S 629 mmHg 86%
    15:00 +12°C° 0.6 mm 2 m/S 629 mmHg 88%
    16:00 +12°C° 0.6 mm 2 m/S 629 mmHg 91%
    17:00 +10°C° 1.2 mm 2 m/S 629 mmHg 93%
    18:00 +10°C° 1.2 mm 2 m/S 628 mmHg 95%
    19:00 +9°C° 1.2 mm 2 m/S 628 mmHg 98%
    20:00 +9°C° 1.8 mm 2 m/S 628 mmHg 98%
    21:00 +9°C° 1.8 mm 1 m/S 628 mmHg 98%
    22:00 +9°C° 1.8 mm 1 m/S 628 mmHg 99%
    23:00 +9°C° 2.1 mm 1 m/S 627 mmHg 98%

    Morgen, 28 Mai, Dienstag

    Zeit Temperatur Niederschläge Wind Luftdruck Luftfeuchtigkeit
    00:00 +9°C° 2.1 mm 1 m/S 627 mmHg 98%
    01:00 +8°C° 2.1 mm 1 m/S 627 mmHg 98%
    02:00 +8°C° 2.7 mm 1 m/S 627 mmHg 98%
    03:00 +7°C° 2.7 mm 2 m/S 626 mmHg 98%
    04:00 +7°C° 2.7 mm 2 m/S 626 mmHg 98%
    05:00 +7°C° 1.6 mm 2 m/S 626 mmHg 98%
    06:00 +7°C° 1.6 mm 2 m/S 626 mmHg 98%
    07:00 +7°C° 1.6 mm 2 m/S 626 mmHg 98%
    08:00 +7°C° 1.3 mm 2 m/S 626 mmHg 97%
    09:00 +7°C° 1.3 mm 2 m/S 626 mmHg 97%
    10:00 +7°C° 1.3 mm 2 m/S 626 mmHg 97%
    11:00 +7°C° 1.4 mm 2 m/S 627 mmHg 97%
    12:00 +5°C° 1.4 mm 3 m/S 627 mmHg 97%
    13:00 +5°C° 1.4 mm 3 m/S 627 mmHg 97%
    14:00 +5°C° 1.1 mm 3 m/S 627 mmHg 97%
    15:00 +5°C° 1.1 mm 3 m/S 627 mmHg 96%
    16:00 +5°C° 1.1 mm 3 m/S 627 mmHg 96%
    17:00 +4°C° 1 mm 3 m/S 627 mmHg 96%
    18:00 +5°C° 1 mm 2 m/S 627 mmHg 96%
    19:00 +4°C° 1 mm 2 m/S 628 mmHg 96%
    20:00 +4°C° 0.5 mm 2 m/S 628 mmHg 96%
    21:00 +3°C° 0.5 mm 2 m/S 628 mmHg 96%
    22:00 +3°C° 0.5 mm 2 m/S 628 mmHg 96%
    23:00 +3°C° 0.5 mm 2 m/S 629 mmHg 96%

    übermorgen, 29 Mai, Mittwoch

    Zeit Temperatur Niederschläge Wind Luftdruck Luftfeuchtigkeit
    00:00 +3°C° 0.5 mm 2 m/S 629 mmHg 96%
    01:00 +2°C° 0.5 mm 2 m/S 629 mmHg 97%
    02:00 +2°C° 0.5 mm 2 m/S 629 mmHg 97%
    03:00 +2°C° 0.5 mm 2 m/S 629 mmHg 97%
    04:00 +2°C° 0.5 mm 2 m/S 629 mmHg 97%
    05:00 +3°C° 0.4 mm 2 m/S 629 mmHg 96%
    06:00 +2°C° 0.4 mm 3 m/S 630 mmHg 96%
    07:00 +2°C° 0.4 mm 3 m/S 630 mmHg 95%
    08:00 +3°C° 0.4 mm 3 m/S 631 mmHg 93%
    09:00 +3°C° 0.4 mm 3 m/S 631 mmHg 92%
    10:00 +4°C° 0.4 mm 3 m/S 631 mmHg 91%
    11:00 +5°C° 0.2 mm 3 m/S 631 mmHg 88%
    12:00 +5°C° 0.2 mm 3 m/S 632 mmHg 86%
    13:00 +7°C° 0.2 mm 3 m/S 632 mmHg 83%
    14:00 +7°C° 0.2 mm 2 m/S 632 mmHg 82%
    15:00 +7°C° 0.2 mm 2 m/S 632 mmHg 82%
    16:00 +7°C° 0.2 mm 2 m/S 632 mmHg 81%
    17:00 +7°C° 0.1 mm 2 m/S 632 mmHg 85%
    18:00 +6°C° 0.1 mm 2 m/S 632 mmHg 88%
    19:00 +6°C° 0.1 mm 2 m/S 632 mmHg 91%
    20:00 +5°C° 0.1 mm 2 m/S 633 mmHg 93%
    21:00 +4°C° 0.1 mm 2 m/S 633 mmHg 95%
    22:00 +4°C° 0.1 mm 1 m/S 633 mmHg 97%
    23:00 +4°C° 0 mm 1 m/S 633 mmHg 96%

    30 Mai, Donnerstag

    Zeit Temperatur Niederschläge Wind Luftdruck Luftfeuchtigkeit
    00:00 +3°C° 0 mm 1 m/S 634 mmHg 95%
    01:00 +3°C° 0 mm 1 m/S 634 mmHg 95%
    02:00 +2°C° 0 mm 1 m/S 633 mmHg 94%
    03:00 +2°C° 0 mm 1 m/S 633 mmHg 93%
    04:00 +2°C° 0 mm 1 m/S 633 mmHg 92%
    05:00 +3°C° 0.1 mm 1 m/S 634 mmHg 88%
    06:00 +5°C° 0.1 mm 1 m/S 634 mmHg 84%
    07:00 +7°C° 0.1 mm 1 m/S 635 mmHg 80%
    08:00 +7°C° 0.3 mm 1 m/S 635 mmHg 82%
    09:00 +7°C° 0.3 mm 1 m/S 635 mmHg 83%
    10:00 +8°C° 0.3 mm 1 m/S 635 mmHg 85%
    11:00 +8°C° 0.2 mm 2 m/S 636 mmHg 82%
    12:00 +9°C° 0.2 mm 2 m/S 636 mmHg 80%
    13:00 +12°C° 0.2 mm 2 m/S 637 mmHg 77%
    14:00 +10°C° 0.3 mm 2 m/S 637 mmHg 79%
    15:00 +10°C° 0.3 mm 2 m/S 636 mmHg 81%
    16:00 +9°C° 0.3 mm 2 m/S 636 mmHg 83%
    17:00 +9°C° 0.2 mm 2 m/S 636 mmHg 86%
    18:00 +9°C° 0.2 mm 1 m/S 636 mmHg 90%
    19:00 +8°C° 0.2 mm 1 m/S 636 mmHg 94%
    20:00 +8°C° 0.2 mm 1 m/S 636 mmHg 94%
    21:00 +8°C° 0.2 mm 1 m/S 636 mmHg 94%
    22:00 +7°C° 0.2 mm 1 m/S 636 mmHg 94%
    23:00 +7°C° 0.4 mm 1 m/S 636 mmHg 94%

    31 Mai, Freitag

    Zeit Temperatur Niederschläge Wind Luftdruck Luftfeuchtigkeit
    00:00 +8°C° 0.4 mm 1 m/S 636 mmHg 94%
    01:00 +8°C° 0.4 mm 1 m/S 636 mmHg 93%
    02:00 +7°C° 0.2 mm 1 m/S 635 mmHg 94%
    03:00 +7°C° 0.2 mm 1 m/S 635 mmHg 94%
    04:00 +7°C° 0.2 mm 1 m/S 635 mmHg 94%
    05:00 +8°C° 0.2 mm 1 m/S 635 mmHg 93%
    06:00 +9°C° 0.2 mm 1 m/S 635 mmHg 91%
    07:00 +10°C° 0.2 mm 1 m/S 636 mmHg 90%
    08:00 +8°C° 1.7 mm 2 m/S 636 mmHg 92%
    09:00 +8°C° 1.7 mm 2 m/S 635 mmHg 94%
    10:00 +8°C° 1.7 mm 2 m/S 635 mmHg 95%
    11:00 +7°C° 1.2 mm 2 m/S 636 mmHg 94%
    12:00 +7°C° 1.2 mm 2 m/S 636 mmHg 94%
    13:00 +7°C° 1.2 mm 2 m/S 636 mmHg 93%
    14:00 +7°C° 0.8 mm 2 m/S 636 mmHg 93%
    15:00 +7°C° 0.8 mm 3 m/S 636 mmHg 94%
    16:00 +7°C° 0.8 mm 3 m/S 636 mmHg 94%
    17:00 +5°C° 0.6 mm 3 m/S 637 mmHg 95%
    18:00 +5°C° 0.6 mm 3 m/S 637 mmHg 96%
    19:00 +5°C° 0.6 mm 2 m/S 637 mmHg 97%
    20:00 +4°C° 0 mm 2 m/S 637 mmHg 97%
    21:00 +4°C° 0 mm 1 m/S 638 mmHg 97%
    22:00 +3°C° 0 mm 1 m/S 638 mmHg 98%
    23:00 +2°C° 0 mm 1 m/S 638 mmHg 96%

    1 Juni, Samstag

    Zeit Temperatur Niederschläge Wind Luftdruck Luftfeuchtigkeit
    00:00 +1°C° 0 mm 1 m/S 638 mmHg 94%
    01:00 0°C° 0 mm 1 m/S 637 mmHg 92%
    02:00 -1°C° 0 mm 1 m/S 637 mmHg 88%
    03:00 -1°C° 0 mm 1 m/S 637 mmHg 85%
    04:00 -2°C° 0 mm 1 m/S 637 mmHg 81%
    05:00 +1°C° 0 mm 1 m/S 638 mmHg 74%
    06:00 +3°C° 0 mm 1 m/S 639 mmHg 67%
    07:00 +5°C° 0 mm 1 m/S 640 mmHg 59%
    08:00 +6°C° 0 mm 2 m/S 640 mmHg 53%
    09:00 +8°C° 0 mm 2 m/S 640 mmHg 47%
    10:00 +9°C° 0 mm 3 m/S 640 mmHg 41%
    11:00 +10°C° 0 mm 3 m/S 641 mmHg 41%
    12:00 +11°C° 0 mm 3 m/S 641 mmHg 41%
    13:00 +12°C° 0 mm 3 m/S 641 mmHg 41%
    14:00 +12°C° 0 mm 3 m/S 641 mmHg 43%
    15:00 +12°C° 0 mm 3 m/S 641 mmHg 44%
    16:00 +12°C° 0 mm 3 m/S 640 mmHg 46%
    17:00 +10°C° 0 mm 3 m/S 640 mmHg 52%
    18:00 +9°C° 0 mm 2 m/S 640 mmHg 58%
    19:00 +8°C° 0 mm 2 m/S 640 mmHg 64%
    20:00 +6°C° 0 mm 2 m/S 639 mmHg 69%
    21:00 +5°C° 0 mm 1 m/S 639 mmHg 74%
    22:00 +3°C° 0 mm 1 m/S 639 mmHg 79%
    23:00 +3°C° 0 mm 1 m/S 639 mmHg 74%
    Mehr zeigen